| time (UTC) | temp C | wind direction | speed KPH | gust KPH | rain 1hr cm | rain 24hr cm | rain mn cm | humidity % | barometer mb |
| 20260510155449 | 11 | 264 | 6.4 | 27.4 | 0.00 | 0.00 | 0.00 | 89 | 1015.3 |
| 20260510154934 | 11 | 219 | 9.7 | 27.4 | 0.00 | 0.00 | 0.00 | 89 | 1015.3 |
| 20260510154441 | 11 | 278 | 11.3 | 27.4 | 0.00 | 0.00 | 0.00 | 89 | 1015.3 |
| 20260510153947 | 11 | 301 | 9.7 | 27.4 | 0.00 | 0.00 | 0.00 | 89 | 1015.3 |
| 20260510153433 | 11 | 289 | 12.9 | 27.4 | 0.00 | 0.00 | 0.00 | 89 | 1015.3 |
| 20260510152940 | 11 | 155 | 11.3 | 24.1 | 0.00 | 0.00 | 0.00 | 89 | 1015.1 |
| 20260510152426 | 11 | 226 | 11.3 | 24.1 | 0.00 | 0.00 | 0.00 | 89 | 1015.0 |
| 20260510151933 | 11 | 273 | 11.3 | 24.1 | 0.00 | 0.00 | 0.00 | 89 | 1015.2 |
| 20260510151421 | 11 | 237 | 9.7 | 24.1 | 0.00 | 0.00 | 0.00 | 89 | 1015.1 |
| 20260510150929 | 11 | 292 | 6.4 | 20.9 | 0.00 | 0.00 | 0.00 | 89 | 1015.1 |
| 20260510150433 | 11 | 270 | 8.0 | 20.9 | 0.00 | 0.00 | 0.00 | 89 | 1015.1 |
| 20260510145939 | 11 | 339 | 6.4 | 16.1 | 0.00 | 0.00 | 0.00 | 89 | 1015.1 |
| 20260510145446 | 11 | 217 | 4.8 | 17.7 | 0.00 | 0.00 | 0.00 | 89 | 1015.0 |
| 20260510144950 | 11 | 287 | 9.7 | 17.7 | 0.00 | 0.00 | 0.00 | 89 | 1014.9 |
| 20260510144438 | 11 | 261 | 8.0 | 22.5 | 0.00 | 0.00 | 0.00 | 89 | 1015.0 |
| 20260510143924 | 11 | 294 | 11.3 | 22.5 | 0.00 | 0.00 | 0.00 | 89 | 1015.0 |
| 20260510143431 | 11 | 360 | 9.7 | 22.5 | 0.00 | 0.00 | 0.00 | 89 | 1015.0 |
| 20260510142932 | 11 | 277 | 4.8 | 16.1 | 0.00 | 0.00 | 0.00 | 89 | 1014.9 |
| 20260510142436 | 11 | 299 | 6.4 | 16.1 | 0.00 | 0.00 | 0.00 | 89 | 1014.9 |
| 20260510141924 | 11 | 302 | 4.8 | 20.9 | 0.00 | 0.00 | 0.00 | 89 | 1014.8 |
| 20260510141459 | 11 | 215 | 11.3 | 20.9 | 0.00 | 0.00 | 0.00 | 89 | 1014.7 |
| 20260510140926 | 11 | 237 | 11.3 | 19.3 | 0.00 | 0.00 | 0.00 | 89 | 1014.6 |
| 20260510140432 | 11 | 275 | 9.7 | 17.7 | 0.00 | 0.00 | 0.00 | 89 | 1014.6 |
| 20260510135939 | 11 | 299 | 8.0 | 20.9 | 0.00 | 0.00 | 0.00 | 89 | 1014.5 |
| 20260510135444 | 11 | 270 | 8.0 | 20.9 | 0.00 | 0.00 | 0.00 | 89 | 1014.5 |
| 20260510134931 | 11 | 247 | 9.7 | 33.8 | 0.00 | 0.00 | 0.00 | 89 | 1014.4 |
| 20260510134437 | 11 | 309 | 9.7 | 33.8 | 0.00 | 0.00 | 0.00 | 89 | 1014.4 |
| 20260510133923 | 11 | 318 | 8.0 | 20.9 | 0.00 | 0.00 | 0.00 | 89 | 1014.4 |
| 20260510133428 | 11 | 282 | 8.0 | 20.9 | 0.00 | 0.00 | 0.00 | 89 | 1014.2 |
| 20260510132934 | 11 | 349 | 8.0 | 20.9 | 0.00 | 0.00 | 0.00 | 89 | 1014.3 |
| 20260510132441 | 11 | 289 | 8.0 | 17.7 | 0.00 | 0.00 | 0.00 | 89 | 1014.2 |
| 20260510131922 | 11 | 222 | 9.7 | 17.7 | 0.00 | 0.00 | 0.00 | 89 | 1014.2 |
| 20260510131429 | 11 | 273 | 8.0 | 14.5 | 0.00 | 0.00 | 0.00 | 89 | 1014.1 |
| 20260510130935 | 11 | 249 | 4.8 | 14.5 | 0.00 | 0.00 | 0.00 | 89 | 1014.1 |
| 20260510130440 | 11 | 287 | 3.2 | 16.1 | 0.00 | 0.00 | 0.00 | 89 | 1014.2 |
| 20260510125924 | 11 | 187 | 6.4 | 16.1 | 0.00 | 0.00 | 0.00 | 89 | 1014.1 |
| 20260510125454 | 11 | 219 | 9.7 | 17.7 | 0.00 | 0.00 | 0.00 | 89 | 1014.2 |
| 20260510124941 | 11 | 316 | 8.0 | 19.3 | 0.00 | 0.00 | 0.00 | 89 | 1014.1 |
| 20260510124442 | 11 | 268 | 9.7 | 24.1 | 0.00 | 0.00 | 0.00 | 89 | 1014.2 |
| 20260510123949 | 11 | 337 | 16.1 | 30.6 | 0.00 | 0.00 | 0.00 | 89 | 1014.1 |
| 20260510123428 | 11 | 285 | 9.7 | 30.6 | 0.00 | 0.00 | 0.00 | 89 | 1014.1 |
| 20260510122936 | 11 | 324 | 6.4 | 19.3 | 0.00 | 0.00 | 0.00 | 89 | 1014.0 |
| 20260510122425 | 11 | 313 | 3.2 | 11.3 | 0.00 | 0.00 | 0.00 | 89 | 1014.1 |
| 20260510121933 | 11 | 199 | 3.2 | 22.5 | 0.00 | 0.00 | 0.00 | 89 | 1014.0 |
| 20260510121438 | 11 | 236 | 9.7 | 22.5 | 0.00 | 0.00 | 0.00 | 89 | 1014.1 |
| 20260510120940 | 11 | 254 | 8.0 | 20.9 | 0.00 | 0.00 | 0.00 | 89 | 1014.2 |
| 20260510120424 | 11 | 326 | 4.8 | 17.7 | 0.00 | 0.00 | 0.00 | 89 | 1014.2 |
| 20260510115930 | 11 | 337 | 8.0 | 27.4 | 0.00 | 0.00 | 0.00 | 89 | 1014.2 |
| 20260510115436 | 11 | 313 | 4.8 | 22.5 | 0.00 | 0.00 | 0.00 | 89 | 1014.3 |
| 20260510114944 | 11 | 101 | 1.6 | 14.5 | 0.00 | 0.00 | 0.00 | 89 | 1014.1 |
| 20260510114427 | 11 | 268 | 4.8 | 24.1 | 0.00 | 0.00 | 0.00 | 89 | 1014.1 |
| 20260510113957 | 11 | 280 | 4.8 | 20.9 | 0.00 | 0.00 | 0.00 | 89 | 1014.2 |
| 20260510112934 | 11 | 294 | 11.3 | 20.9 | 0.00 | 0.00 | 0.00 | 89 | 1014.2 |
| 20260510112440 | 11 | 234 | 6.4 | 16.1 | 0.00 | 0.00 | 0.00 | 89 | 1014.2 |
| 20260510111925 | 11 | 189 | 6.4 | 24.1 | 0.00 | 0.00 | 0.00 | 89 | 1014.2 |
| 20260510111433 | 11 | 297 | 14.5 | 24.1 | 0.00 | 0.00 | 0.00 | 89 | 1014.4 |
| 20260510110937 | 11 | 283 | 9.7 | 22.5 | 0.00 | 0.00 | 0.00 | 89 | 1014.3 |
| 20260510110445 | 11 | 216 | 6.4 | 19.3 | 0.00 | 0.00 | 0.00 | 89 | 1014.3 |
| 20260510105931 | 11 | 295 | 6.4 | 17.7 | 0.00 | 0.00 | 0.00 | 89 | 1014.3 |
| 20260510105434 | 11 | 116 | 8.0 | 17.7 | 0.00 | 0.00 | 0.00 | 89 | 1014.2 |
| 20260510104942 | 11 | 249 | 8.0 | 20.9 | 0.00 | 0.00 | 0.00 | 89 | 1014.2 |
| 20260510104429 | 11 | 221 | 6.4 | 20.9 | 0.00 | 0.00 | 0.00 | 89 | 1014.2 |
| 20260510103935 | 11 | 259 | 8.0 | 33.8 | 0.00 | 0.00 | 0.00 | 89 | 1014.3 |
| 20260510103421 | 11 | 330 | 4.8 | 33.8 | 0.00 | 0.00 | 0.00 | 89 | 1014.3 |
| 20260510102928 | 11 | 66 | 3.2 | 16.1 | 0.00 | 0.00 | 0.00 | 89 | 1014.3 |
| 20260510102436 | 11 | 261 | 3.2 | 17.7 | 0.00 | 0.00 | 0.00 | 89 | 1014.3 |
| 20260510101922 | 11 | 215 | 8.0 | 19.3 | 0.00 | 0.00 | 0.00 | 89 | 1014.4 |
| 20260510101427 | 11 | 252 | 11.3 | 19.3 | 0.00 | 0.00 | 0.00 | 89 | 1014.4 |
| 20260510100934 | 11 | 235 | 6.4 | 14.5 | 0.00 | 0.00 | 0.00 | 89 | 1014.4 |
| 20260510100440 | 11 | 190 | 8.0 | 20.9 | 0.00 | 0.00 | 0.00 | 89 | 1014.4 |
| 20260510095946 | 11 | 134 | 6.4 | 20.9 | 0.00 | 0.00 | 0.00 | 89 | 1014.4 |
| 20260510095435 | 11 | 227 | 3.2 | 24.1 | 0.00 | 0.00 | 0.00 | 89 | 1014.4 |
| 20260510094922 | 11 | 285 | 9.7 | 24.1 | 0.00 | 0.00 | 0.00 | 89 | 1014.4 |
| 20260510094444 | 11 | 270 | 8.0 | 17.7 | 0.00 | 0.00 | 0.00 | 89 | 1014.5 |
| 20260510093929 | 11 | 341 | 6.4 | 17.7 | 0.00 | 0.00 | 0.00 | 89 | 1014.5 |
| 20260510093435 | 11 | 258 | 9.7 | 19.3 | 0.00 | 0.00 | 0.00 | 89 | 1014.5 |
| 20260510092933 | 11 | 242 | 9.7 | 19.3 | 0.00 | 0.00 | 0.00 | 89 | 1014.5 |
| 20260510092422 | 11 | 280 | 6.4 | 22.5 | 0.00 | 0.00 | 0.00 | 89 | 1014.4 |
| 20260510091928 | 11 | 308 | 9.7 | 24.1 | 0.00 | 0.00 | 0.00 | 89 | 1014.4 |
| 20260510091435 | 11 | 251 | 8.0 | 27.4 | 0.00 | 0.00 | 0.00 | 89 | 1014.4 |
| 20260510090921 | 11 | 333 | 12.9 | 27.4 | 0.00 | 0.00 | 0.00 | 89 | 1014.5 |
| 20260510090441 | 11 | 22 | 8.0 | 20.9 | 0.00 | 0.00 | 0.00 | 89 | 1014.4 |
| 20260510085946 | 11 | 249 | 6.4 | 27.4 | 0.00 | 0.00 | 0.00 | 89 | 1014.5 |
| 20260510085431 | 11 | 221 | 11.3 | 27.4 | 0.00 | 0.00 | 0.00 | 89 | 1014.5 |
| 20260510084940 | 11 | 254 | 9.7 | 25.7 | 0.00 | 0.00 | 0.00 | 89 | 1014.4 |
| 20260510084446 | 11 | 244 | 11.3 | 33.8 | 0.00 | 0.00 | 0.00 | 89 | 1014.5 |
| 20260510083931 | 11 | 291 | 17.7 | 33.8 | 0.00 | 0.00 | 0.00 | 89 | 1014.5 |
| 20260510083434 | 11 | 247 | 14.5 | 37.0 | 0.00 | 0.00 | 0.00 | 89 | 1014.5 |
| 20260510082939 | 11 | 191 | 19.3 | 37.0 | 0.00 | 0.00 | 0.00 | 89 | 1014.5 |
| 20260510082424 | 11 | 285 | 17.7 | 30.6 | 0.00 | 0.00 | 0.00 | 89 | 1014.5 |
| 20260510081931 | 11 | 258 | 17.7 | 33.8 | 0.00 | 0.00 | 0.00 | 89 | 1014.5 |
| 20260510081440 | 11 | 233 | 17.7 | 37.0 | 0.00 | 0.00 | 0.00 | 89 | 1014.6 |
| 20260510080925 | 11 | 320 | 17.7 | 37.0 | 0.00 | 0.00 | 0.00 | 89 | 1014.5 |
| 20260510080427 | 11 | 242 | 11.3 | 22.5 | 0.00 | 0.00 | 0.00 | 89 | 1014.5 |
| 20260510075943 | 11 | 197 | 11.3 | 27.4 | 0.00 | 0.00 | 0.00 | 89 | 1014.7 |
| 20260510075429 | 11 | 263 | 12.9 | 32.2 | 0.00 | 0.00 | 0.00 | 89 | 1014.7 |
| 20260510074933 | 11 | 256 | 17.7 | 41.8 | 0.00 | 0.00 | 0.00 | 89 | 1014.6 |
| 20260510074421 | 11 | 251 | 22.5 | 41.8 | 0.00 | 0.00 | 0.00 | 89 | 1014.6 |
| 20260510073926 | 11 | 228 | 17.7 | 37.0 | 0.00 | 0.00 | 0.00 | 89 | 1014.7 |
| 20260510073431 | 11 | 244 | 17.7 | 32.2 | 0.00 | 0.00 | 0.00 | 89 | 1014.7 |
| 20260510072937 | 11 | 348 | 14.5 | 38.6 | 0.00 | 0.00 | 0.00 | 88 | 1014.8 |
| 20260510072421 | 11 | 278 | 17.7 | 38.6 | 0.00 | 0.00 | 0.00 | 88 | 1014.9 |
| 20260510071949 | 11 | 177 | 14.5 | 29.0 | 0.00 | 0.00 | 0.00 | 88 | 1014.8 |
| 20260510071434 | 11 | 282 | 17.7 | 30.6 | 0.00 | 0.00 | 0.00 | 88 | 1014.9 |
| 20260510070922 | 11 | 264 | 12.9 | 30.6 | 0.00 | 0.00 | 0.00 | 88 | 1014.9 |
| 20260510070516 | 11 | 290 | 17.7 | 32.2 | 0.00 | 0.00 | 0.00 | 88 | 1014.8 |
| 20260510065953 | 11 | 251 | 11.3 | 37.0 | 0.00 | 0.00 | 0.00 | 88 | 1014.8 |
| 20260510065436 | 11 | 290 | 22.5 | 37.0 | 0.00 | 0.00 | 0.00 | 88 | 1014.7 |
| 20260510064940 | 11 | 269 | 16.1 | 35.4 | 0.00 | 0.00 | 0.00 | 88 | 1014.7 |
| 20260510064427 | 11 | 273 | 14.5 | 30.6 | 0.00 | 0.00 | 0.00 | 88 | 1014.7 |
| 20260510063933 | 11 | 236 | 9.7 | 29.0 | 0.00 | 0.00 | 0.00 | 88 | 1014.8 |
| 20260510063421 | 11 | 258 | 12.9 | 29.0 | 0.00 | 0.00 | 0.00 | 88 | 1014.8 |
| 20260510062927 | 11 | 286 | 11.3 | 25.7 | 0.00 | 0.00 | 0.00 | 88 | 1014.8 |
| 20260510062434 | 11 | 222 | 6.4 | 25.7 | 0.00 | 0.00 | 0.00 | 88 | 1014.8 |
| 20260510061922 | 11 | 270 | 12.9 | 29.0 | 0.00 | 0.00 | 0.00 | 88 | 1014.7 |
| 20260510061425 | 11 | 219 | 8.0 | 33.8 | 0.00 | 0.00 | 0.00 | 88 | 1014.8 |
| 20260510060930 | 11 | 270 | 16.1 | 33.8 | 0.00 | 0.00 | 0.00 | 88 | 1014.8 |
| 20260510060438 | 11 | 206 | 12.9 | 33.8 | 0.00 | 0.00 | 0.00 | 87 | 1014.7 |
| 20260510055927 | 11 | 273 | 16.1 | 33.8 | 0.00 | 0.00 | 0.00 | 87 | 1014.7 |
| 20260510055433 | 11 | 261 | 16.1 | 30.6 | 0.00 | 0.00 | 0.00 | 87 | 1014.7 |
| 20260510054922 | 11 | 219 | 16.1 | 30.6 | 0.00 | 0.00 | 0.00 | 87 | 1014.6 |
| 20260510054431 | 11 | 229 | 12.9 | 30.6 | 0.00 | 0.00 | 0.00 | 87 | 1014.7 |
| 20260510053932 | 11 | 257 | 11.3 | 32.2 | 0.00 | 0.00 | 0.00 | 87 | 1014.7 |
| 20260510053438 | 12 | 359 | 17.7 | 35.4 | 0.00 | 0.00 | 0.00 | 87 | 1014.7 |
| 20260510052924 | 12 | 256 | 17.7 | 35.4 | 0.00 | 0.00 | 0.00 | 87 | 1014.7 |
| 20260510052433 | 12 | 225 | 16.1 | 30.6 | 0.00 | 0.00 | 0.00 | 87 | 1014.7 |
| 20260510051922 | 12 | 205 | 11.3 | 30.6 | 0.00 | 0.00 | 0.00 | 87 | 1014.7 |
| 20260510051429 | 12 | 249 | 12.9 | 29.0 | 0.00 | 0.00 | 0.00 | 86 | 1014.7 |
| 20260510050935 | 12 | 271 | 16.1 | 33.8 | 0.00 | 0.00 | 0.00 | 87 | 1014.7 |
| 20260510050423 | 12 | 287 | 19.3 | 33.8 | 0.00 | 0.00 | 0.00 | 86 | 1014.7 |
| 20260510045922 | 12 | 256 | 17.7 | 33.8 | 0.00 | 0.00 | 0.00 | 86 | 1014.6 |
| 20260510045431 | 12 | 251 | 17.7 | 45.1 | 0.00 | 0.00 | 0.00 | 86 | 1014.6 |
| 20260510044938 | 12 | 271 | 19.3 | 45.1 | 0.00 | 0.00 | 0.00 | 86 | 1014.6 |
| 20260510044427 | 12 | 232 | 12.9 | 40.2 | 0.00 | 0.00 | 0.00 | 86 | 1014.5 |
| 20260510043933 | 12 | 280 | 17.7 | 40.2 | 0.00 | 0.00 | 0.00 | 86 | 1014.4 |
| 20260510043439 | 12 | 234 | 19.3 | 35.4 | 0.00 | 0.00 | 0.00 | 86 | 1014.4 |
| 20260510042925 | 12 | 258 | 17.7 | 32.2 | 0.00 | 0.00 | 0.00 | 86 | 1014.4 |
| 20260510042430 | 12 | 244 | 17.7 | 32.2 | 0.00 | 0.00 | 0.00 | 86 | 1014.3 |
| 20260510041934 | 12 | 244 | 14.5 | 35.4 | 0.00 | 0.00 | 0.00 | 86 | 1014.2 |
| 20260510041421 | 12 | 230 | 19.3 | 35.4 | 0.00 | 0.00 | 0.00 | 86 | 1014.0 |
| 20260510040929 | 12 | 242 | 16.1 | 38.6 | 0.00 | 0.00 | 0.00 | 86 | 1013.9 |
| 20260510040433 | 12 | 275 | 20.9 | 38.6 | 0.00 | 0.00 | 0.00 | 86 | 1013.8 |
| 20260510035940 | 12 | 256 | 19.3 | 33.8 | 0.00 | 0.00 | 0.00 | 86 | 1013.8 |
| 20260510035423 | 12 | 266 | 17.7 | 35.4 | 0.00 | 0.00 | 0.00 | 86 | 1013.9 |
| 20260510034950 | 12 | 290 | 19.3 | 35.4 | 0.00 | 0.00 | 0.00 | 86 | 1013.8 |
| 20260510034431 | 12 | 275 | 22.5 | 46.7 | 0.00 | 0.00 | 0.00 | 86 | 1013.8 |
| 20260510033939 | 12 | 282 | 19.3 | 46.7 | 0.00 | 0.00 | 0.00 | 86 | 1013.8 |
| 20260510033426 | 12 | 253 | 25.7 | 40.2 | 0.00 | 0.00 | 0.00 | 85 | 1013.6 |
| 20260510032931 | 12 | 268 | 20.9 | 40.2 | 0.00 | 0.00 | 0.00 | 85 | 1013.7 |
| 20260510032439 | 12 | 222 | 20.9 | 38.6 | 0.00 | 0.00 | 0.00 | 85 | 1013.8 |
| 20260510031927 | 12 | 289 | 25.7 | 46.7 | 0.00 | 0.00 | 0.00 | 85 | 1013.7 |
| 20260510031433 | 12 | 247 | 22.5 | 37.0 | 0.00 | 0.00 | 0.00 | 85 | 1013.6 |
| 20260510030920 | 12 | 283 | 17.7 | 41.8 | 0.00 | 0.00 | 0.00 | 85 | 1013.7 |
| 20260510030421 | 12 | 282 | 19.3 | 46.7 | 0.00 | 0.00 | 0.00 | 85 | 1013.5 |
| 20260510025928 | 12 | 263 | 20.9 | 45.1 | 0.00 | 0.00 | 0.00 | 85 | 1013.4 |
| 20260510025434 | 12 | 280 | 19.3 | 40.2 | 0.00 | 0.00 | 0.00 | 85 | 1013.5 |
| 20260510024940 | 12 | 280 | 24.1 | 46.7 | 0.00 | 0.00 | 0.00 | 85 | 1013.5 |
| 20260510024426 | 12 | 278 | 20.9 | 38.6 | 0.00 | 0.00 | 0.00 | 85 | 1013.4 |
| 20260510023933 | 12 | 276 | 20.9 | 43.5 | 0.00 | 0.00 | 0.00 | 85 | 1013.4 |
| 20260510023439 | 12 | 242 | 19.3 | 43.5 | 0.00 | 0.00 | 0.00 | 84 | 1013.3 |
| 20260510022941 | 12 | 254 | 16.1 | 46.7 | 0.00 | 0.00 | 0.00 | 84 | 1013.3 |
| 20260510022427 | 12 | 294 | 24.1 | 51.5 | 0.00 | 0.00 | 0.00 | 84 | 1013.4 |
| 20260510021933 | 12 | 275 | 24.1 | 51.5 | 0.00 | 0.00 | 0.00 | 84 | 1013.4 |
| 20260510021438 | 12 | 270 | 24.1 | 43.5 | 0.00 | 0.00 | 0.00 | 84 | 1013.4 |
| 20260510020925 | 12 | 275 | 24.1 | 51.5 | 0.00 | 0.00 | 0.00 | 84 | 1013.4 |
| 20260510020434 | 12 | 259 | 29.0 | 51.5 | 0.00 | 0.00 | 0.00 | 84 | 1013.4 |
| 20260510015922 | 13 | 224 | 25.7 | 43.5 | 0.00 | 0.00 | 0.00 | 83 | 1013.3 |
| 20260510015429 | 13 | 259 | 25.7 | 51.5 | 0.00 | 0.00 | 0.00 | 83 | 1013.2 |
| 20260510014932 | 13 | 266 | 25.7 | 53.1 | 0.00 | 0.00 | 0.00 | 83 | 1013.3 |
| 20260510014438 | 13 | 252 | 29.0 | 53.1 | 0.00 | 0.00 | 0.00 | 82 | 1013.2 |
| 20260510013925 | 13 | 268 | 25.7 | 49.9 | 0.00 | 0.00 | 0.00 | 82 | 1013.5 |
| 20260510013433 | 13 | 246 | 25.7 | 49.9 | 0.00 | 0.00 | 0.00 | 82 | 1013.3 |
| 20260510012939 | 13 | 262 | 30.6 | 49.9 | 0.00 | 0.00 | 0.00 | 81 | 1013.3 |
| 20260510012427 | 13 | 212 | 27.4 | 46.7 | 0.00 | 0.00 | 0.00 | 81 | 1013.4 |
| 20260510012001 | 14 | 239 | 19.3 | 43.5 | 0.00 | 0.00 | 0.00 | 81 | 1013.5 |
| 20260510011452 | 14 | 270 | 20.9 | 43.5 | 0.00 | 0.00 | 0.00 | 81 | 1013.5 |
| 20260510010940 | 14 | 285 | 27.4 | 48.3 | 0.00 | 0.00 | 0.00 | 81 | 1013.5 |
| 20260510010447 | 14 | 259 | 17.7 | 43.5 | 0.00 | 0.00 | 0.00 | 80 | 1013.5 |
| 20260510005931 | 14 | 251 | 25.7 | 43.5 | 0.00 | 0.00 | 0.00 | 80 | 1013.5 |
| 20260510005439 | 14 | 242 | 17.7 | 45.1 | 0.00 | 0.00 | 0.00 | 80 | 1013.6 |
| 20260510004945 | 14 | 274 | 19.3 | 45.1 | 0.00 | 0.00 | 0.00 | 79 | 1013.6 |
| 20260510004426 | 15 | 186 | 14.5 | 41.8 | 0.00 | 0.00 | 0.00 | 79 | 1013.7 |
| 20260510004001 | 15 | 227 | 19.3 | 41.8 | 0.00 | 0.00 | 0.00 | 79 | 1013.6 |
| 20260510003426 | 15 | 241 | 17.7 | 38.6 | 0.00 | 0.00 | 0.00 | 79 | 1013.7 |
| 20260510002934 | 15 | 271 | 17.7 | 38.6 | 0.00 | 0.00 | 0.00 | 79 | 1013.6 |
| 20260510002421 | 15 | 256 | 19.3 | 38.6 | 0.00 | 0.00 | 0.00 | 79 | 1013.8 |
| 20260510001929 | 15 | 238 | 20.9 | 40.2 | 0.00 | 0.00 | 0.00 | 79 | 1013.6 |
| 20260510001436 | 15 | 282 | 17.7 | 40.2 | 0.00 | 0.00 | 0.00 | 79 | 1013.7 |
| 20260510000923 | 15 | 189 | 19.3 | 41.8 | 0.00 | 0.00 | 0.00 | 79 | 1013.5 |
| 20260510000449 | 15 | 275 | 24.1 | 49.9 | 0.00 | 0.00 | 0.00 | 79 | 1013.5 |
| 20260509235935 | 15 | 247 | 20.9 | 49.9 | 0.00 | 0.00 | 0.00 | 79 | 1013.5 |
| 20260509235442 | 15 | 263 | 29.0 | 51.5 | 0.00 | 0.00 | 0.00 | 79 | 1013.5 |
| 20260509234926 | 15 | 263 | 24.1 | 51.5 | 0.00 | 0.00 | 0.00 | 79 | 1013.5 |
| 20260509234430 | 15 | 249 | 22.5 | 51.5 | 0.00 | 0.00 | 0.00 | 79 | 1013.7 |
| 20260509233939 | 15 | 256 | 25.7 | 49.9 | 0.00 | 0.00 | 0.00 | 79 | 1013.6 |
| 20260509233421 | 15 | 283 | 20.9 | 41.8 | 0.00 | 0.00 | 0.00 | 78 | 1013.7 |
| 20260509232928 | 15 | 177 | 22.5 | 48.3 | 0.00 | 0.00 | 0.00 | 79 | 1013.7 |
| 20260509232436 | 15 | 272 | 25.7 | 49.9 | 0.00 | 0.00 | 0.00 | 79 | 1013.7 |
| 20260509231922 | 15 | 258 | 25.7 | 48.3 | 0.00 | 0.00 | 0.00 | 78 | 1013.7 |
| 20260509231428 | 15 | 270 | 25.7 | 48.3 | 0.00 | 0.00 | 0.00 | 78 | 1013.8 |
| 20260509230954 | 15 | 264 | 25.7 | 43.5 | 0.00 | 0.00 | 0.00 | 78 | 1013.7 |
| 20260509230438 | 15 | 273 | 22.5 | 48.3 | 0.00 | 0.00 | 0.00 | 78 | 1013.9 |
| 20260509225921 | 15 | 294 | 29.0 | 48.3 | 0.00 | 0.00 | 0.00 | 78 | 1013.8 |
| 20260509225426 | 15 | 234 | 24.1 | 48.3 | 0.00 | 0.00 | 0.00 | 78 | 1013.9 |
| 20260509224932 | 15 | 268 | 25.7 | 48.3 | 0.00 | 0.00 | 0.00 | 78 | 1014.0 |
| 20260509224438 | 15 | 282 | 25.7 | 51.5 | 0.00 | 0.00 | 0.00 | 78 | 1014.0 |
| 20260509223923 | 15 | 302 | 22.5 | 51.5 | 0.00 | 0.00 | 0.00 | 78 | 1014.1 |
| 20260509223430 | 15 | 275 | 30.6 | 46.7 | 0.00 | 0.00 | 0.00 | 78 | 1014.2 |
| 20260509222937 | 16 | 214 | 22.5 | 43.5 | 0.00 | 0.00 | 0.00 | 77 | 1014.1 |
| 20260509222425 | 16 | 243 | 20.9 | 43.5 | 0.00 | 0.00 | 0.00 | 77 | 1014.2 |
| 20260509221929 | 15 | 280 | 25.7 | 53.1 | 0.00 | 0.00 | 0.00 | 78 | 1014.2 |
| 20260509221434 | 15 | 280 | 29.0 | 53.1 | 0.00 | 0.00 | 0.00 | 77 | 1014.2 |
| 20260509220921 | 16 | 273 | 20.9 | 54.7 | 0.00 | 0.00 | 0.00 | 78 | 1014.3 |
| 20260509220430 | 16 | 271 | 25.7 | 51.5 | 0.00 | 0.00 | 0.00 | 77 | 1014.2 |
| 20260509215937 | 15 | 299 | 25.7 | 51.5 | 0.00 | 0.00 | 0.00 | 77 | 1014.2 |
| 20260509215443 | 16 | 275 | 25.7 | 51.5 | 0.00 | 0.00 | 0.00 | 76 | 1014.3 |
| 20260509215000 | 16 | 280 | 27.4 | 51.5 | 0.00 | 0.00 | 0.00 | 77 | 1014.3 |
| 20260509214421 | 16 | 256 | 20.9 | 41.8 | 0.00 | 0.00 | 0.00 | 76 | 1014.4 |
| 20260509213930 | 16 | 266 | 19.3 | 41.8 | 0.00 | 0.00 | 0.00 | 77 | 1014.7 |
| 20260509213434 | 16 | 214 | 17.7 | 41.8 | 0.00 | 0.00 | 0.00 | 77 | 1014.7 |
| 20260509212937 | 16 | 314 | 17.7 | 43.5 | 0.00 | 0.00 | 0.00 | 78 | 1014.9 |
| 20260509212423 | 15 | 263 | 24.1 | 48.3 | 0.00 | 0.00 | 0.00 | 77 | 1014.8 |
| 20260509211928 | 15 | 259 | 22.5 | 48.3 | 0.00 | 0.00 | 0.00 | 77 | 1014.9 |
| 20260509211436 | 15 | 259 | 20.9 | 43.5 | 0.00 | 0.00 | 0.00 | 77 | 1015.0 |
| 20260509210925 | 15 | 270 | 24.1 | 41.8 | 0.00 | 0.00 | 0.00 | 77 | 1014.9 |
| 20260509210428 | 15 | 302 | 27.4 | 46.7 | 0.00 | 0.00 | 0.00 | 77 | 1015.0 |
| 20260509205935 | 15 | 244 | 27.4 | 46.7 | 0.00 | 0.00 | 0.00 | 78 | 1015.0 |
| 20260509205423 | 15 | 261 | 24.1 | 45.1 | 0.00 | 0.00 | 0.00 | 77 | 1015.1 |
| 20260509204933 | 15 | 300 | 20.9 | 41.8 | 0.00 | 0.00 | 0.00 | 77 | 1015.1 |
| 20260509204440 | 15 | 261 | 24.1 | 49.9 | 0.00 | 0.00 | 0.00 | 78 | 1015.3 |
| 20260509203928 | 15 | 237 | 27.4 | 49.9 | 0.00 | 0.00 | 0.00 | 78 | 1015.2 |
| 20260509203437 | 15 | 299 | 24.1 | 48.3 | 0.00 | 0.00 | 0.00 | 77 | 1015.3 |
| 20260509202924 | 15 | 283 | 24.1 | 48.3 | 0.00 | 0.00 | 0.00 | 77 | 1015.3 |
| 20260509202425 | 15 | 245 | 25.7 | 45.1 | 0.00 | 0.00 | 0.00 | 77 | 1015.4 |
| 20260509201931 | 15 | 257 | 29.0 | 45.1 | 0.00 | 0.00 | 0.00 | 77 | 1015.3 |
| 20260509201439 | 15 | 292 | 25.7 | 45.1 | 0.00 | 0.00 | 0.00 | 76 | 1015.4 |
| 20260509200925 | 16 | 320 | 19.3 | 33.8 | 0.00 | 0.00 | 0.00 | 76 | 1015.5 |
| 20260509200431 | 16 | 268 | 17.7 | 38.6 | 0.00 | 0.00 | 0.00 | 75 | 1015.5 |
| 20260509195939 | 16 | 303 | 17.7 | 38.6 | 0.00 | 0.00 | 0.00 | 75 | 1015.6 |
| 20260509195455 | 16 | 282 | 11.3 | 32.2 | 0.00 | 0.00 | 0.00 | 75 | 1015.6 |
| 20260509194936 | 16 | 243 | 17.7 | 30.6 | 0.00 | 0.00 | 0.00 | 74 | 1015.6 |
| 20260509194421 | 16 | 280 | 14.5 | 22.5 | 0.00 | 0.00 | 0.00 | 74 | 1015.7 |
| 20260509193947 | 16 | 328 | 9.7 | 24.1 | 0.00 | 0.00 | 0.00 | 74 | 1015.7 |
| 20260509193435 | 16 | 333 | 14.5 | 24.1 | 0.00 | 0.00 | 0.00 | 73 | 1015.7 |
| 20260509192920 | 16 | 313 | 6.4 | 16.1 | 0.00 | 0.00 | 0.00 | 73 | 1015.8 |
| 20260509192446 | 16 | 308 | 6.4 | 17.7 | 0.00 | 0.00 | 0.00 | 73 | 1015.9 |
| 20260509191927 | 16 | 336 | 9.7 | 17.7 | 0.00 | 0.00 | 0.00 | 73 | 1015.8 |
| 20260509191433 | 16 | 78 | 6.4 | 11.3 | 0.00 | 0.00 | 0.00 | 75 | 1015.8 |
| 20260509190938 | 16 | 268 | 8.0 | 20.9 | 0.00 | 0.00 | 0.00 | 75 | 1015.8 |
| 20260509190455 | 16 | 254 | 11.3 | 22.5 | 0.00 | 0.00 | 0.00 | 75 | 1015.8 |
| 20260509185931 | 16 | 280 | 12.9 | 20.9 | 0.00 | 0.00 | 0.00 | 75 | 1015.9 |
| 20260509185435 | 16 | 299 | 9.7 | 20.9 | 0.00 | 0.00 | 0.00 | 76 | 1015.9 |
| 20260509184942 | 15 | 88 | 11.3 | 20.9 | 0.00 | 0.00 | 0.00 | 76 | 1016.0 |
| 20260509184444 | 15 | 202 | 8.0 | 24.1 | 0.00 | 0.00 | 0.00 | 76 | 1016.1 |
| 20260509183928 | 15 | 305 | 11.3 | 24.1 | 0.00 | 0.00 | 0.00 | 76 | 1016.0 |
| 20260509183502 | 15 | 294 | 11.3 | 20.9 | 0.00 | 0.00 | 0.00 | 76 | 1016.1 |
| 20260509182958 | 16 | 268 | 6.4 | 17.7 | 0.00 | 0.00 | 0.00 | 76 | 1016.0 |
| 20260509182422 | 15 | 297 | 8.0 | 17.7 | 0.00 | 0.00 | 0.00 | 76 | 1016.0 |
| 20260509181929 | 15 | 313 | 11.3 | 20.9 | 0.00 | 0.00 | 0.00 | 76 | 1016.0 |
| 20260509181500 | 15 | 299 | 12.9 | 20.9 | 0.00 | 0.00 | 0.00 | 76 | 1016.1 |
| 20260509180945 | 15 | 300 | 9.7 | 17.7 | 0.00 | 0.00 | 0.00 | 77 | 1016.1 |
| 20260509180428 | 15 | 280 | 9.7 | 17.7 | 0.00 | 0.00 | 0.00 | 77 | 1016.1 |
| 20260509175934 | 15 | 249 | 8.0 | 16.1 | 0.00 | 0.00 | 0.00 | 78 | 1016.1 |
| 20260509175420 | 15 | 330 | 9.7 | 16.1 | 0.00 | 0.00 | 0.00 | 78 | 1016.1 |
| 20260509174925 | 15 | 292 | 4.8 | 16.1 | 0.00 | 0.00 | 0.00 | 78 | 1016.2 |
| 20260509174449 | 15 | 322 | 9.7 | 17.7 | 0.00 | 0.00 | 0.00 | 78 | 1016.2 |
| 20260509173934 | 14 | 321 | 11.3 | 20.9 | 0.00 | 0.00 | 0.00 | 78 | 1016.2 |
| 20260509173437 | 14 | 294 | 9.7 | 20.9 | 0.00 | 0.00 | 0.00 | 78 | 1016.2 |
| 20260509172922 | 14 | 277 | 9.7 | 16.1 | 0.00 | 0.00 | 0.00 | 78 | 1016.1 |
| 20260509172430 | 13 | 258 | 6.4 | 16.1 | 0.00 | 0.00 | 0.00 | 80 | 1016.1 |
| 20260509172002 | 13 | 233 | 9.7 | 20.9 | 0.00 | 0.00 | 0.00 | 80 | 1016.1 |
| 20260509171451 | 13 | 229 | 9.7 | 20.9 | 0.00 | 0.00 | 0.00 | 79 | 1016.1 |
| 20260509170939 | 13 | 217 | 9.7 | 19.3 | 0.00 | 0.00 | 0.00 | 79 | 1016.1 |
| 20260509170423 | 14 | 236 | 4.8 | 16.1 | 0.00 | 0.00 | 0.00 | 78 | 1016.1 |
| 20260509165958 | 14 | 222 | 4.8 | 14.5 | 0.00 | 0.00 | 0.00 | 79 | 1016.1 |
| 20260509165422 | 14 | 268 | 3.2 | 14.5 | 0.00 | 0.00 | 0.00 | 79 | 1016.0 |
| 20260509164928 | 14 | 219 | 6.4 | 16.1 | 0.00 | 0.00 | 0.00 | 79 | 1016.1 |
| 20260509164435 | 14 | 211 | 9.7 | 16.1 | 0.00 | 0.00 | 0.00 | 79 | 1016.1 |
| 20260509163922 | 14 | 222 | 8.0 | 12.9 | 0.00 | 0.00 | 0.00 | 79 | 1016.0 |
| 20260509163426 | 14 | 222 | 6.4 | 12.9 | 0.00 | 0.00 | 0.00 | 79 | 1016.1 |
| 20260509162933 | 14 | 310 | 6.4 | 12.9 | 0.00 | 0.00 | 0.00 | 80 | 1016.1 |
| 20260509162439 | 14 | 256 | 4.8 | 12.9 | 0.00 | 0.00 | 0.00 | 81 | 1016.0 |
| 20260509161925 | 13 | 254 | 6.4 | 12.9 | 0.00 | 0.00 | 0.00 | 81 | 1016.0 |
| 20260509161452 | 13 | 276 | 6.4 | 12.9 | 0.00 | 0.00 | 0.00 | 82 | 1016.1 |
| 20260509160937 | 13 | 313 | 6.4 | 17.7 | 0.00 | 0.00 | 0.00 | 82 | 1016.0 |
| 20260509160421 | 13 | 282 | 3.2 | 17.7 | 0.00 | 0.00 | 0.00 | 83 | 1016.0 |
| 20260509155923 | 13 | 205 | 9.7 | 14.5 | 0.00 | 0.00 | 0.00 | 84 | 1016.1 |